DAL673 KBOS-KDTW

Flight info

Callsign DAL673
Flight time 1h 37m
Altitude 36000
Route HYLND7 HYLND CAM Q822 GONZZ DONEO TPGUN2
Aircraft A320/M-SDE3FGHIRWY/LB1

Departure

Time 2026-05-03 22:08
Airport Boston Logan International Airport (KBOS)

Arrival

Time 2026-05-03 23:45
Airport Detroit Metropolitan Wayne County Airport (KDTW)
Time Latitude Longitude Altitude Speed Heading
2026-05-03 21:49 42.36400 -71.02246 26 ft 0 kts 33°
2026-05-03 21:55 42.36391 -71.02254 29 ft 4 kts 33°
2026-05-03 21:55 42.36368 -71.02274 24 ft 4 kts 37°
2026-05-03 21:55 42.36349 -71.02297 26 ft 4 kts 63°
2026-05-03 21:56 42.36346 -71.02319 27 ft 1 kts 120°
2026-05-03 21:56 42.36348 -71.02324 27 ft 0 kts 120°
2026-05-03 22:00 42.36344 -71.02317 25 ft 6 kts 131°
2026-05-03 22:00 42.36221 -71.02289 23 ft 31 kts 163°
2026-05-03 22:00 42.36089 -71.02190 26 ft 16 kts 116°
2026-05-03 22:00 42.36041 -71.02070 26 ft 14 kts 130°
2026-05-03 22:01 42.35987 -71.01975 26 ft 12 kts 121°
2026-05-03 22:01 42.35948 -71.01884 28 ft 11 kts 121°
2026-05-03 22:01 42.35917 -71.01785 29 ft 11 kts 104°
2026-05-03 22:01 42.35900 -71.01689 31 ft 10 kts 102°
2026-05-03 22:02 42.35885 -71.01583 30 ft 13 kts 99°
2026-05-03 22:02 42.35868 -71.01449 29 ft 16 kts 102°
2026-05-03 22:02 42.35842 -71.01298 27 ft 17 kts 101°
2026-05-03 22:02 42.35829 -71.01137 24 ft 18 kts 84°
2026-05-03 22:03 42.35872 -71.00987 21 ft 17 kts 56°
2026-05-03 22:03 42.35949 -71.00864 21 ft 16 kts 52°
2026-05-03 22:03 42.35961 -71.00734 24 ft 13 kts 105°
2026-05-03 22:03 42.35933 -71.00603 22 ft 18 kts 107°
2026-05-03 22:04 42.35890 -71.00386 25 ft 24 kts 86°
2026-05-03 22:04 42.35918 -71.00181 30 ft 21 kts 77°
2026-05-03 22:04 42.35889 -71.00024 29 ft 18 kts 148°
2026-05-03 22:04 42.35816 -70.99913 31 ft 14 kts 133°
2026-05-03 22:05 42.35747 -70.99817 29 ft 15 kts 133°
2026-05-03 22:05 42.35676 -70.99715 28 ft 15 kts 133°
2026-05-03 22:05 42.35606 -70.99624 27 ft 14 kts 135°
2026-05-03 22:05 42.35538 -70.99527 24 ft 15 kts 136°
2026-05-03 22:06 42.35488 -70.99426 26 ft 12 kts 94°
2026-05-03 22:06 42.35492 -70.99388 26 ft 0 kts 80°
2026-05-03 22:06 42.35493 -70.99380 26 ft 2 kts 78°
2026-05-03 22:06 42.35497 -70.99354 26 ft 4 kts 78°
2026-05-03 22:07 42.35513 -70.99292 27 ft 18 kts 47°
2026-05-03 22:07 42.35634 -70.99394 27 ft 40 kts 314°
2026-05-03 22:07 42.35996 -70.99881 30 ft 105 kts 316°
2026-05-03 22:07 42.36621 -71.00737 178 ft 140 kts 314°
2026-05-03 22:08 42.37351 -71.01654 736 ft 147 kts 315°
2026-05-03 22:08 42.38095 -71.02626 1514 ft 146 kts 309°
2026-05-03 22:08 42.38671 -71.03764 2137 ft 157 kts 300°
2026-05-03 22:08 42.39259 -71.05141 2520 ft 181 kts 300°
2026-05-03 22:09 42.39930 -71.06714 2982 ft 205 kts 300°
2026-05-03 22:09 42.40686 -71.08480 3503 ft 228 kts 302°
2026-05-03 22:09 42.41772 -71.10079 4334 ft 238 kts 327°
2026-05-03 22:10 42.44903 -71.11815 6239 ft 248 kts 335°
2026-05-03 22:10 42.46517 -71.12696 7155 ft 251 kts 335°
2026-05-03 22:10 42.48144 -71.13591 8086 ft 254 kts 335°
2026-05-03 22:10 42.49794 -71.14501 8995 ft 257 kts 335°
2026-05-03 22:11 42.51462 -71.15412 9897 ft 261 kts 336°
2026-05-03 22:11 42.53181 -71.16262 10466 ft 276 kts 338°
2026-05-03 22:11 42.55077 -71.17135 10744 ft 300 kts 339°
2026-05-03 22:11 42.57132 -71.18050 11047 ft 320 kts 339°
2026-05-03 22:12 42.59281 -71.19002 11695 ft 327 kts 339°
2026-05-03 22:12 42.61454 -71.19969 12470 ft 330 kts 339°
2026-05-03 22:12 42.63652 -71.20951 13248 ft 334 kts 339°
2026-05-03 22:12 42.65869 -71.21952 13964 ft 337 kts 339°
2026-05-03 22:13 42.68112 -71.22970 14630 ft 341 kts 339°
2026-05-03 22:13 42.70375 -71.24001 15308 ft 345 kts 339°
2026-05-03 22:13 42.72661 -71.25048 15984 ft 347 kts 338°
2026-05-03 22:13 42.74798 -71.26481 16643 ft 347 kts 324°
2026-05-03 22:14 42.76621 -71.28630 17308 ft 349 kts 311°
2026-05-03 22:14 42.78002 -71.31347 17960 ft 352 kts 298°
2026-05-03 22:14 42.78852 -71.34490 18561 ft 358 kts 284°
2026-05-03 22:14 42.79259 -71.37856 19143 ft 362 kts 281°
2026-05-03 22:15 42.79632 -71.41256 19724 ft 365 kts 281°
2026-05-03 22:15 42.80009 -71.44686 20290 ft 368 kts 281°
2026-05-03 22:15 42.80390 -71.48148 20838 ft 371 kts 281°
2026-05-03 22:15 42.80775 -71.51631 21381 ft 373 kts 281°
2026-05-03 22:16 42.81163 -71.55138 21898 ft 376 kts 280°
2026-05-03 22:16 42.81554 -71.58675 22418 ft 379 kts 281°
2026-05-03 22:16 42.81945 -71.62237 22934 ft 381 kts 281°
2026-05-03 22:16 42.82335 -71.65818 23422 ft 384 kts 281°
2026-05-03 22:17 42.82728 -71.69425 23813 ft 386 kts 281°
2026-05-03 22:17 42.83123 -71.73062 24191 ft 389 kts 280°
2026-05-03 22:17 42.83518 -71.76718 24575 ft 392 kts 280°
2026-05-03 22:17 42.83915 -71.80405 24936 ft 394 kts 280°
2026-05-03 22:18 42.84313 -71.84118 25288 ft 397 kts 280°
2026-05-03 22:18 42.84714 -71.87856 25628 ft 400 kts 280°
2026-05-03 22:18 42.85119 -71.91618 25960 ft 402 kts 280°
2026-05-03 22:18 42.85523 -71.95393 26331 ft 404 kts 280°
2026-05-03 22:19 42.85928 -71.99195 26677 ft 406 kts 279°
2026-05-03 22:19 42.86330 -72.03009 27002 ft 408 kts 279°
2026-05-03 22:19 42.86732 -72.06851 27324 ft 410 kts 279°
2026-05-03 22:19 42.87133 -72.10672 27627 ft 413 kts 279°
2026-05-03 22:20 42.87541 -72.14556 27944 ft 415 kts 279°
2026-05-03 22:20 42.87949 -72.18463 28242 ft 417 kts 279°
2026-05-03 22:20 42.88358 -72.22379 28539 ft 419 kts 279°
2026-05-03 22:20 42.88766 -72.26319 28803 ft 421 kts 279°
2026-05-03 22:21 42.89176 -72.30287 29076 ft 422 kts 279°
2026-05-03 22:21 42.89586 -72.34262 29307 ft 424 kts 279°
2026-05-03 22:21 42.89996 -72.38239 29632 ft 423 kts 279°
2026-05-03 22:21 42.90406 -72.42209 29972 ft 423 kts 279°
2026-05-03 22:22 42.90812 -72.46177 30243 ft 423 kts 279°
2026-05-03 22:22 42.91216 -72.50155 30506 ft 423 kts 278°
2026-05-03 22:22 42.91615 -72.54132 30767 ft 423 kts 278°
2026-05-03 22:22 42.92013 -72.58113 31020 ft 424 kts 278°
2026-05-03 22:23 42.92413 -72.62096 31282 ft 424 kts 278°
2026-05-03 22:23 42.92812 -72.66070 31605 ft 422 kts 278°
2026-05-03 22:23 42.93209 -72.70040 31889 ft 422 kts 278°
2026-05-03 22:23 42.93604 -72.74012 32156 ft 423 kts 278°
2026-05-03 22:24 42.93999 -72.77988 32409 ft 423 kts 278°
2026-05-03 22:24 42.94396 -72.81980 32660 ft 424 kts 278°
2026-05-03 22:24 42.94788 -72.85970 32918 ft 425 kts 278°
2026-05-03 22:24 42.95175 -72.89924 33177 ft 425 kts 278°
2026-05-03 22:25 42.95563 -72.93924 33441 ft 426 kts 277°
2026-05-03 22:25 42.95950 -72.97934 33756 ft 425 kts 277°
2026-05-03 22:25 42.96337 -73.01930 34033 ft 424 kts 277°
2026-05-03 22:25 42.96723 -73.05922 34267 ft 424 kts 277°
2026-05-03 22:26 42.97105 -73.09915 34498 ft 424 kts 277°
2026-05-03 22:26 42.97487 -73.13916 34707 ft 425 kts 277°
2026-05-03 22:26 42.97870 -73.17915 34928 ft 425 kts 277°
2026-05-03 22:26 42.98252 -73.21920 35138 ft 425 kts 277°
2026-05-03 22:27 42.98632 -73.25928 35322 ft 425 kts 277°
2026-05-03 22:27 42.99009 -73.29927 35567 ft 424 kts 276°
2026-05-03 22:27 42.99378 -73.33926 35768 ft 424 kts 275°
2026-05-03 22:28 42.99641 -73.42001 35877 ft 426 kts 271°
2026-05-03 22:28 42.99829 -73.50092 35880 ft 426 kts 271°
2026-05-03 22:29 43.00013 -73.58193 35887 ft 426 kts 271°
2026-05-03 22:29 43.00205 -73.66232 35895 ft 427 kts 272°
2026-05-03 22:30 43.00390 -73.74343 35893 ft 427 kts 271°
2026-05-03 22:30 43.00567 -73.82467 35902 ft 428 kts 271°
2026-05-03 22:31 43.00735 -73.90590 35901 ft 428 kts 271°
2026-05-03 22:31 43.00871 -73.97344 35905 ft 428 kts 271°
2026-05-03 22:32 43.01030 -74.05469 35915 ft 428 kts 272°
2026-05-03 22:32 43.01191 -74.13592 35917 ft 427 kts 271°
2026-05-03 22:33 43.01338 -74.21706 35923 ft 427 kts 271°
2026-05-03 22:33 43.01523 -74.29817 35922 ft 427 kts 273°
2026-05-03 22:34 43.01905 -74.37858 35928 ft 427 kts 274°
2026-05-03 22:34 43.02331 -74.45940 35927 ft 426 kts 274°
2026-05-03 22:35 43.02710 -74.54015 35925 ft 426 kts 274°
2026-05-03 22:35 43.03051 -74.62100 35924 ft 425 kts 273°
2026-05-03 22:36 43.03383 -74.70170 35926 ft 425 kts 273°
2026-05-03 22:36 43.03719 -74.78242 35925 ft 425 kts 273°
2026-05-03 22:37 43.04052 -74.86263 35922 ft 425 kts 273°
2026-05-03 22:37 43.04381 -74.94341 35924 ft 425 kts 273°
2026-05-03 22:38 43.04703 -75.02417 35926 ft 425 kts 273°
2026-05-03 22:38 43.05018 -75.10445 35808 ft 412 kts 270°
2026-05-03 22:38 43.05171 -75.14287 35912 ft 400 kts 270°
2026-05-03 22:39 43.05317 -75.18062 35907 ft 395 kts 270°
2026-05-03 22:39 43.05593 -75.25523 35915 ft 392 kts 270°
2026-05-03 22:40 43.05855 -75.32954 35911 ft 391 kts 269°
2026-05-03 22:40 43.06066 -75.40372 35915 ft 390 kts 269°
2026-05-03 22:41 43.06262 -75.47799 35922 ft 391 kts 269°
2026-05-03 22:41 43.06460 -75.55183 35922 ft 392 kts 269°
2026-05-03 22:42 43.06656 -75.62627 35920 ft 392 kts 269°
2026-05-03 22:42 43.06849 -75.70078 35925 ft 392 kts 269°
2026-05-03 22:43 43.07040 -75.77536 35924 ft 392 kts 269°
2026-05-03 22:43 43.07223 -75.84994 35941 ft 392 kts 269°
2026-05-03 22:44 43.07400 -75.92465 35928 ft 393 kts 269°
2026-05-03 22:44 43.07575 -75.99924 35926 ft 392 kts 269°
2026-05-03 22:45 43.07741 -76.07342 35922 ft 392 kts 269°
2026-05-03 22:45 43.07908 -76.14800 35941 ft 392 kts 269°
2026-05-03 22:46 43.08067 -76.22261 35930 ft 392 kts 269°
2026-05-03 22:46 43.08219 -76.29730 35927 ft 392 kts 268°
2026-05-03 22:47 43.08363 -76.37192 35925 ft 392 kts 268°
2026-05-03 22:47 43.08512 -76.44650 35929 ft 392 kts 268°
2026-05-03 22:48 43.08662 -76.52106 35938 ft 392 kts 268°
2026-05-03 22:48 43.08798 -76.59560 35933 ft 392 kts 268°
2026-05-03 22:49 43.08923 -76.67038 35925 ft 392 kts 268°
2026-05-03 22:49 43.08451 -76.74386 35928 ft 390 kts 261°
2026-05-03 22:50 43.07800 -76.81751 35924 ft 390 kts 261°
2026-05-03 22:50 43.07155 -76.89124 35907 ft 390 kts 261°
2026-05-03 22:51 43.06507 -76.96466 35907 ft 389 kts 261°
2026-05-03 22:51 43.05864 -77.03825 35912 ft 389 kts 261°
2026-05-03 22:52 43.05189 -77.11159 35911 ft 388 kts 261°
2026-05-03 22:52 43.04523 -77.18429 35912 ft 388 kts 261°
2026-05-03 22:53 43.03864 -77.25751 35919 ft 388 kts 261°
2026-05-03 22:53 43.03189 -77.33068 35907 ft 388 kts 261°
2026-05-03 22:54 43.02508 -77.40386 35898 ft 388 kts 261°
2026-05-03 22:54 43.01829 -77.47701 35901 ft 388 kts 261°
2026-05-03 22:55 43.01141 -77.55024 35898 ft 388 kts 261°
2026-05-03 22:55 43.00444 -77.62340 35915 ft 389 kts 261°
2026-05-03 22:56 42.99746 -77.69643 35902 ft 390 kts 261°
2026-05-03 22:56 42.99043 -77.77000 35900 ft 391 kts 260°
2026-05-03 22:57 42.98335 -77.84364 35900 ft 391 kts 260°
2026-05-03 22:57 42.97623 -77.91705 35896 ft 389 kts 260°
2026-05-03 22:58 42.96902 -77.99038 35915 ft 389 kts 260°
2026-05-03 22:58 42.96182 -78.06379 35909 ft 390 kts 260°
2026-05-03 22:59 42.95459 -78.13662 35905 ft 390 kts 260°
2026-05-03 22:59 42.94728 -78.20994 35905 ft 390 kts 260°
2026-05-03 23:00 42.93993 -78.28315 35900 ft 390 kts 260°
2026-05-03 23:00 42.93248 -78.35637 35905 ft 389 kts 259°
2026-05-03 23:01 42.92494 -78.42955 35916 ft 389 kts 259°
2026-05-03 23:01 42.91741 -78.50270 35919 ft 389 kts 260°
2026-05-03 23:02 42.90990 -78.57586 35917 ft 389 kts 260°
2026-05-03 23:02 42.90238 -78.64853 35914 ft 389 kts 260°
2026-05-03 23:03 42.89475 -78.72196 35968 ft 398 kts 264°
2026-05-03 23:03 42.88681 -78.79835 35916 ft 413 kts 264°
2026-05-03 23:04 42.87850 -78.87652 35921 ft 418 kts 263°
2026-05-03 23:04 42.86999 -78.95514 35920 ft 419 kts 263°
2026-05-03 23:05 42.86152 -79.03376 35921 ft 419 kts 263°
2026-05-03 23:05 42.85311 -79.11236 35920 ft 419 kts 264°
2026-05-03 23:06 42.84460 -79.19092 35916 ft 419 kts 264°
2026-05-03 23:06 42.83604 -79.26892 35923 ft 419 kts 263°
2026-05-03 23:07 42.82732 -79.34761 35915 ft 419 kts 263°
2026-05-03 23:07 42.81861 -79.42624 35918 ft 419 kts 263°
2026-05-03 23:08 42.80997 -79.50413 35928 ft 419 kts 264°
2026-05-03 23:08 42.80120 -79.58252 35928 ft 418 kts 263°
2026-05-03 23:09 42.79237 -79.66092 35932 ft 418 kts 263°
2026-05-03 23:09 42.78354 -79.73914 35934 ft 418 kts 264°
2026-05-03 23:10 42.77638 -79.81751 35931 ft 417 kts 266°
2026-05-03 23:10 42.77035 -79.89606 35913 ft 416 kts 266°
2026-05-03 23:11 42.76413 -79.97444 35920 ft 416 kts 266°
2026-05-03 23:11 42.75755 -80.05220 35916 ft 416 kts 265°
2026-05-03 23:12 42.75084 -80.13035 35929 ft 416 kts 265°
2026-05-03 23:12 42.74407 -80.20854 35917 ft 416 kts 265°
2026-05-03 23:13 42.73722 -80.28675 35922 ft 416 kts 265°
2026-05-03 23:13 42.73031 -80.36483 35924 ft 415 kts 265°
2026-05-03 23:14 42.72545 -80.44252 35920 ft 414 kts 269°
2026-05-03 23:14 42.72281 -80.52082 35921 ft 414 kts 270°
2026-05-03 23:15 42.72011 -80.59901 35923 ft 414 kts 269°
2026-05-03 23:15 42.71676 -80.67734 35922 ft 414 kts 269°
2026-05-03 23:16 42.71316 -80.75555 35922 ft 414 kts 269°
2026-05-03 23:16 42.70953 -80.83372 35914 ft 414 kts 269°
2026-05-03 23:16 42.70773 -80.87238 35706 ft 414 kts 269°
2026-05-03 23:17 42.70590 -80.91148 35455 ft 414 kts 269°
2026-05-03 23:17 42.70407 -80.95050 35210 ft 413 kts 269°
2026-05-03 23:17 42.70225 -80.98957 34974 ft 413 kts 269°
2026-05-03 23:17 42.70044 -81.02857 34737 ft 413 kts 269°
2026-05-03 23:18 42.69862 -81.06755 34285 ft 413 kts 269°
2026-05-03 23:18 42.69677 -81.10667 33283 ft 416 kts 269°
2026-05-03 23:18 42.69485 -81.14588 32308 ft 416 kts 269°
2026-05-03 23:18 42.69291 -81.18519 31251 ft 418 kts 269°
2026-05-03 23:19 42.69096 -81.22468 30249 ft 418 kts 269°
2026-05-03 23:19 42.68965 -81.25082 29449 ft 420 kts 269°
2026-05-03 23:19 42.68763 -81.29032 28624 ft 414 kts 268°
2026-05-03 23:19 42.68502 -81.34055 28322 ft 392 kts 269°
2026-05-03 23:20 42.68280 -81.37697 28031 ft 383 kts 267°
2026-05-03 23:20 42.68000 -81.41273 27755 ft 379 kts 266°
2026-05-03 23:20 42.67792 -81.43673 27504 ft 378 kts 266°
2026-05-03 23:20 42.67479 -81.47154 26945 ft 374 kts 266°
2026-05-03 23:21 42.67161 -81.50648 26383 ft 371 kts 266°
2026-05-03 23:21 42.66848 -81.54109 25816 ft 368 kts 266°
2026-05-03 23:21 42.66543 -81.57542 25265 ft 365 kts 266°
2026-05-03 23:21 42.66248 -81.60949 24718 ft 362 kts 266°
2026-05-03 23:22 42.65663 -81.67687 23630 ft 356 kts 266°
2026-05-03 23:22 42.65373 -81.71022 23042 ft 354 kts 266°
2026-05-03 23:22 42.65085 -81.74328 22504 ft 351 kts 266°
2026-05-03 23:23 42.64801 -81.77609 21978 ft 348 kts 266°
2026-05-03 23:23 42.64517 -81.80863 21451 ft 346 kts 266°
2026-05-03 23:23 42.64231 -81.84102 20928 ft 344 kts 265°
2026-05-03 23:23 42.63949 -81.87319 20410 ft 342 kts 265°
2026-05-03 23:24 42.63667 -81.90516 19895 ft 340 kts 265°
2026-05-03 23:24 42.63381 -81.93700 19384 ft 338 kts 265°
2026-05-03 23:24 42.63097 -81.96859 18878 ft 337 kts 265°
2026-05-03 23:24 42.62814 -82.00008 18362 ft 335 kts 265°
2026-05-03 23:25 42.62532 -82.03138 17936 ft 333 kts 264°
2026-05-03 23:25 42.62252 -82.06253 17408 ft 331 kts 264°
2026-05-03 23:25 42.61973 -82.09349 16912 ft 329 kts 264°
2026-05-03 23:25 42.61694 -82.12427 16410 ft 327 kts 264°
2026-05-03 23:26 42.61415 -82.15479 15921 ft 325 kts 264°
2026-05-03 23:26 42.61142 -82.18478 15425 ft 324 kts 264°
2026-05-03 23:26 42.60864 -82.21499 14951 ft 322 kts 264°
2026-05-03 23:26 42.60585 -82.24514 14465 ft 321 kts 264°
2026-05-03 23:27 42.60308 -82.27507 13985 ft 320 kts 264°
2026-05-03 23:27 42.60032 -82.30495 13494 ft 318 kts 263°
2026-05-03 23:27 42.59755 -82.33465 12999 ft 316 kts 263°
2026-05-03 23:27 42.59480 -82.36408 12510 ft 313 kts 263°
2026-05-03 23:28 42.59207 -82.39324 12035 ft 310 kts 263°
2026-05-03 23:28 42.58839 -82.42192 11554 ft 307 kts 255°
2026-05-03 23:28 42.58080 -82.44891 11103 ft 305 kts 249°
2026-05-03 23:28 42.57260 -82.47533 10643 ft 302 kts 249°
2026-05-03 23:29 42.56452 -82.50138 10304 ft 295 kts 249°
2026-05-03 23:29 42.55673 -82.52646 10177 ft 282 kts 249°
2026-05-03 23:29 42.54933 -82.55045 10036 ft 271 kts 249°
2026-05-03 23:29 42.54215 -82.57371 9786 ft 264 kts 249°
2026-05-03 23:30 42.53508 -82.59651 9675 ft 262 kts 249°
2026-05-03 23:30 42.52804 -82.61923 9387 ft 260 kts 249°
2026-05-03 23:30 42.52105 -82.64173 9035 ft 258 kts 249°
2026-05-03 23:30 42.51418 -82.66383 8670 ft 256 kts 249°
2026-05-03 23:31 42.50731 -82.68595 8307 ft 254 kts 248°
2026-05-03 23:31 42.50041 -82.70786 7940 ft 252 kts 248°
2026-05-03 23:31 42.49342 -82.72984 7573 ft 250 kts 247°
2026-05-03 23:31 42.48750 -82.75144 7217 ft 247 kts 257°
2026-05-03 23:32 42.48660 -82.77460 6959 ft 247 kts 274°
2026-05-03 23:32 42.49117 -82.79671 6930 ft 239 kts 291°
2026-05-03 23:32 42.49887 -82.81592 6932 ft 223 kts 294°
2026-05-03 23:32 42.50609 -82.83363 6935 ft 207 kts 293°
2026-05-03 23:33 42.51277 -82.85012 6930 ft 192 kts 293°
2026-05-03 23:33 42.51904 -82.86566 6931 ft 186 kts 292°
2026-05-03 23:33 42.52517 -82.88095 6933 ft 184 kts 292°
2026-05-03 23:33 42.53125 -82.89626 6936 ft 184 kts 292°
2026-05-03 23:34 42.53733 -82.91156 6932 ft 184 kts 292°
2026-05-03 23:34 42.54317 -82.92681 6715 ft 180 kts 284°
2026-05-03 23:34 42.54467 -82.94314 6436 ft 174 kts 265°
2026-05-03 23:34 42.54405 -82.95952 6165 ft 174 kts 262°
2026-05-03 23:35 42.54321 -82.97583 5896 ft 173 kts 262°
2026-05-03 23:35 42.54231 -82.99211 5684 ft 173 kts 262°
2026-05-03 23:35 42.53948 -83.00752 5478 ft 167 kts 238°
2026-05-03 23:35 42.53146 -83.01899 5424 ft 171 kts 224°
2026-05-03 23:36 42.52241 -83.02941 5387 ft 171 kts 224°
2026-05-03 23:36 42.51348 -83.03972 5350 ft 170 kts 224°
2026-05-03 23:36 42.50449 -83.05011 5319 ft 171 kts 224°
2026-05-03 23:36 42.49543 -83.06058 5282 ft 171 kts 224°
2026-05-03 23:37 42.48636 -83.07105 5245 ft 171 kts 224°
2026-05-03 23:37 42.47736 -83.08144 5204 ft 169 kts 224°
2026-05-03 23:37 42.46839 -83.09176 5165 ft 169 kts 224°
2026-05-03 23:37 42.45939 -83.10213 5128 ft 170 kts 224°
2026-05-03 23:38 42.45037 -83.11252 5089 ft 170 kts 224°
2026-05-03 23:38 42.44138 -83.12287 5049 ft 169 kts 224°
2026-05-03 23:38 42.43242 -83.13317 5013 ft 169 kts 223°
2026-05-03 23:38 42.42353 -83.14338 4808 ft 167 kts 224°
2026-05-03 23:39 42.41466 -83.15361 4540 ft 167 kts 224°
2026-05-03 23:39 42.40596 -83.16365 4264 ft 167 kts 224°
2026-05-03 23:39 42.39710 -83.17385 3977 ft 167 kts 224°
2026-05-03 23:39 42.38826 -83.18398 3738 ft 166 kts 224°
2026-05-03 23:40 42.37951 -83.19401 3508 ft 165 kts 223°
2026-05-03 23:40 42.37082 -83.20399 3289 ft 162 kts 223°
2026-05-03 23:40 42.36223 -83.21388 3062 ft 161 kts 223°
2026-05-03 23:40 42.35364 -83.22375 2983 ft 163 kts 223°
2026-05-03 23:41 42.34494 -83.23370 2997 ft 164 kts 223°
2026-05-03 23:41 42.33632 -83.24357 2999 ft 164 kts 222°
2026-05-03 23:41 42.32737 -83.25299 3012 ft 159 kts 217°
2026-05-03 23:41 42.31843 -83.26043 3006 ft 143 kts 215°
2026-05-03 23:42 42.30991 -83.26708 2767 ft 139 kts 213°
2026-05-03 23:42 42.30163 -83.27336 2558 ft 134 kts 213°
2026-05-03 23:42 42.29366 -83.27933 2373 ft 128 kts 213°
2026-05-03 23:42 42.28610 -83.28495 2201 ft 121 kts 213°
2026-05-03 23:43 42.27883 -83.29034 2044 ft 118 kts 214°
2026-05-03 23:43 42.27159 -83.29571 1875 ft 120 kts 212°
2026-05-03 23:43 42.26433 -83.30108 1728 ft 118 kts 212°
2026-05-03 23:43 42.25715 -83.30639 1550 ft 116 kts 212°
2026-05-03 23:44 42.25009 -83.31161 1379 ft 115 kts 212°
2026-05-03 23:44 42.24299 -83.31684 1221 ft 118 kts 211°
2026-05-03 23:44 42.23582 -83.32213 1051 ft 119 kts 211°
2026-05-03 23:44 42.22855 -83.32748 878 ft 117 kts 208°
2026-05-03 23:45 42.22125 -83.33287 730 ft 120 kts 209°
2026-05-03 23:45 42.21424 -83.33806 651 ft 98 kts 209°
2026-05-03 23:45 42.21076 -83.34063 652 ft 34 kts 208°
2026-05-03 23:45 42.20880 -83.34209 652 ft 31 kts 209°
2026-05-03 23:46 42.20701 -83.34350 650 ft 27 kts 216°
2026-05-03 23:46 42.20581 -83.34522 652 ft 24 kts 237°
2026-05-03 23:46 42.20501 -83.34711 650 ft 23 kts 236°
2026-05-03 23:46 42.20383 -83.34827 650 ft 20 kts 211°
2026-05-03 23:47 42.20274 -83.34920 649 ft 18 kts 210°
2026-05-03 23:47 42.20192 -83.35019 651 ft 15 kts 247°
2026-05-03 23:47 42.20177 -83.35165 649 ft 16 kts 266°
2026-05-03 23:47 42.20171 -83.35324 649 ft 18 kts 269°
2026-05-03 23:48 42.20172 -83.35493 649 ft 18 kts 270°
2026-05-03 23:48 42.20157 -83.35666 649 ft 19 kts 263°
2026-05-03 23:48 42.20151 -83.35843 649 ft 19 kts 269°
2026-05-03 23:48 42.20149 -83.36025 649 ft 20 kts 269°
2026-05-03 23:49 42.20162 -83.36213 649 ft 21 kts 281°
2026-05-03 23:49 42.20238 -83.36361 649 ft 21 kts 341°
2026-05-03 23:49 42.20368 -83.36325 649 ft 19 kts 31°
2026-05-03 23:49 42.20476 -83.36234 651 ft 18 kts 32°
2026-05-03 23:50 42.20560 -83.36185 649 ft 12 kts 16°
2026-05-03 23:50 42.20612 -83.36156 650 ft 13 kts 29°
2026-05-03 23:50 42.20709 -83.36081 649 ft 11 kts 25°
2026-05-03 23:50 42.20724 -83.36012 649 ft 3 kts 111°
2026-05-03 23:51 42.20716 -83.35990 649 ft 2 kts 116°
2026-05-03 23:51 42.20705 -83.35965 650 ft 0 kts 120°